EW7526 Weather Reports


Display with metric or nautical units.
time (UTC)temp
F
wind
direction
speed
MPH
gust
MPH
rain 1hr
in
rain 24hr
in
rain mn
in
humidity
%
barometer
mb
20171021140105 60 33 0.0 0.0 0.00 0.00 0.00 49 1013.3
20171021135604 60 42 1.0 2.0 0.00 0.00 0.00 49 1013.3
20171021135104 60 25 3.0 5.0 0.00 0.00 0.00 49 1013.2
20171021134604 59 53 3.0 5.0 0.00 0.00 0.00 49 1013.2
20171021134104 59 15 3.0 5.0 0.00 0.00 0.00 49 1012.9
20171021133604 59 39 3.0 5.0 0.00 0.00 0.00 51 1012.9
20171021133105 58 24 3.0 5.0 0.00 0.00 0.00 53 1013.0
20171021132604 58 43 0.0 0.0 0.00 0.00 0.00 54 1013.0
20171021132105 58 34 0.0 0.0 0.00 0.00 0.00 54 1013.0
20171021131605 58 22 0.0 1.0 0.00 0.00 0.00 54 1012.8
20171021131104 58 23 2.0 2.0 0.00 0.00 0.00 54 1012.8
20171021130604 58 329 1.0 2.0 0.00 0.00 0.00 54 1012.6
20171021130104 58 24 2.0 3.0 0.00 0.00 0.00 53 1012.6
20171021125604 58 25 2.0 3.0 0.00 0.00 0.00 53 1012.5
20171021125105 58 60 0.0 0.0 0.00 0.00 0.00 53 1012.5
20171021124605 58 45 0.0 0.0 0.00 0.00 0.00 53 1012.5
20171021124104 58 179 0.0 0.0 0.00 0.00 0.00 53 1012.3
20171021123604 58 38 0.0 0.0 0.00 0.00 0.00 53 1012.3
20171021123104 58 57 0.0 0.0 0.00 0.00 0.00 52 1012.3
20171021122605 59 72 0.0 0.0 0.00 0.00 0.00 52 1012.3
20171021122104 59 292 0.0 0.0 0.00 0.00 0.00 52 1012.3
20171021121604 60 129 0.0 0.0 0.00 0.00 0.00 52 1012.1
20171021121104 60 331 0.0 0.0 0.00 0.00 0.00 53 1012.1
20171021120604 60 36 0.0 0.0 0.00 0.00 0.00 53 1011.8
20171021120104 60 119 0.0 1.0 0.00 0.00 0.00 53 1011.8
20171021115604 60 30 0.0 1.0 0.00 0.00 0.00 53 1011.7
20171021115104 60 39 0.0 0.0 0.00 0.00 0.00 53 1011.7
20171021114604 61 132 0.0 2.0 0.00 0.00 0.00 52 1011.7
20171021114104 61 156 2.0 3.0 0.00 0.00 0.00 52 1011.3
20171021113604 61 190 1.0 2.0 0.00 0.00 0.00 52 1011.3
20171021113105 61 158 2.0 2.0 0.00 0.00 0.00 52 1011.4
20171021112605 61 158 2.0 3.0 0.00 0.00 0.00 52 1011.4
20171021112105 61 162 2.0 3.0 0.00 0.00 0.00 52 1011.4
20171021111605 61 306 1.0 2.0 0.00 0.00 0.00 51 1011.2
20171021111104 61 138 3.0 3.0 0.00 0.00 0.00 51 1011.2
20171021110605 61 156 2.0 3.0 0.00 0.00 0.00 50 1011.1
20171021110105 61 125 2.0 2.0 0.00 0.00 0.00 50 1011.1
20171021105604 61 167 2.0 3.0 0.00 0.00 0.00 49 1011.1
20171021105105 61 163 1.0 2.0 0.00 0.00 0.00 49 1011.0
20171021104605 62 175 2.0 3.0 0.00 0.00 0.00 48 1011.0
20171021104104 62 160 2.0 3.0 0.00 0.00 0.00 48 1010.9
20171021103605 62 166 1.0 2.0 0.00 0.00 0.00 47 1010.9
20171021103104 62 193 1.0 2.0 0.00 0.00 0.00 47 1010.7
20171021102605 62 152 1.0 2.0 0.00 0.00 0.00 47 1010.7
20171021102104 62 156 2.0 3.0 0.00 0.00 0.00 47 1010.7
20171021101604 62 158 2.0 3.0 0.00 0.00 0.00 47 1010.8
20171021101104 62 194 2.0 3.0 0.00 0.00 0.00 47 1010.8
20171021100605 62 109 2.0 3.0 0.00 0.00 0.00 47 1010.4
20171021100105 62 170 1.0 1.0 0.00 0.00 0.00 47 1010.4
20171021095604 62 337 1.0 2.0 0.00 0.00 0.00 47 1010.4
20171021095104 62 186 0.0 2.0 0.00 0.00 0.00 46 1010.4
20171021094604 62 147 0.0 2.0 0.00 0.00 0.00 46 1010.4
20171021094104 62 75 0.0 0.0 0.00 0.00 0.00 46 1010.2
20171021093605 62 160 0.0 1.0 0.00 0.00 0.00 45 1010.2
20171021093104 62 156 2.0 2.0 0.00 0.00 0.00 45 1009.8
20171021092605 62 169 2.0 2.0 0.00 0.00 0.00 45 1009.8
20171021092104 62 164 0.0 0.0 0.00 0.00 0.00 44 1009.8
20171021091604 63 161 0.0 0.0 0.00 0.00 0.00 43 1010.0
20171021091104 63 145 0.0 0.0 0.00 0.00 0.00 42 1010.0
20171021090604 63 119 0.0 0.0 0.00 0.00 0.00 42 1009.8
20171021090105 63 178 0.0 0.0 0.00 0.00 0.00 42 1009.8
20171021085604 63 180 0.0 0.0 0.00 0.00 0.00 42 1009.8
20171021085104 63 148 0.0 0.0 0.00 0.00 0.00 41 1009.7
20171021084604 64 166 0.0 0.0 0.00 0.00 0.00 41 1009.7
20171021084104 64 170 1.0 1.0 0.00 0.00 0.00 41 1009.7
20171021083604 64 84 0.0 0.0 0.00 0.00 0.00 41 1009.7
20171021083104 64 45 0.0 1.0 0.00 0.00 0.00 41 1009.8
20171021082604 64 139 0.0 0.0 0.00 0.00 0.00 40 1009.8
20171021082105 64 88 0.0 0.0 0.00 0.00 0.00 40 1009.8
20171021081606 65 80 0.0 0.0 0.00 0.00 0.00 40 1009.8
20171021081106 65 132 0.0 0.0 0.00 0.00 0.00 39 1009.8
20171021080605 65 170 0.0 0.0 0.00 0.00 0.00 39 1009.8
20171021080105 66 180 1.0 2.0 0.00 0.00 0.00 38 1009.8
20171021075604 66 182 2.0 3.0 0.00 0.00 0.00 38 1009.8
20171021075104 66 196 2.0 3.0 0.00 0.00 0.00 38 1009.8
20171021074604 66 145 3.0 3.0 0.00 0.00 0.00 38 1009.8
20171021074104 66 180 2.0 2.0 0.00 0.00 0.00 38 1009.5
20171021073604 66 168 1.0 3.0 0.00 0.00 0.00 38 1009.5
20171021073104 66 180 2.0 3.0 0.00 0.00 0.00 39 1009.7
20171021072605 66 153 0.0 2.0 0.00 0.00 0.00 39 1009.7
20171021072104 66 160 1.0 2.0 0.00 0.00 0.00 39 1009.7
20171021071605 66 97 0.0 0.0 0.00 0.00 0.00 38 1009.5
20171021071104 66 135 0.0 1.0 0.00 0.00 0.00 38 1009.5
20171021070604 67 149 2.0 3.0 0.00 0.00 0.00 37 1009.5
20171021070104 67 158 1.0 2.0 0.00 0.00 0.00 37 1009.5
20171021065604 67 172 1.0 3.0 0.00 0.00 0.00 37 1009.4
20171021065105 67 192 2.0 3.0 0.00 0.00 0.00 37 1009.3
20171021064604 67 158 2.0 2.0 0.00 0.00 0.00 37 1009.3
20171021064105 67 162 2.0 3.0 0.00 0.00 0.00 37 1009.5
20171021063604 68 172 2.0 2.0 0.00 0.00 0.00 36 1009.5
20171021063104 68 133 2.0 5.0 0.00 0.00 0.00 36 1009.6
20171021062604 68 197 3.0 3.0 0.00 0.00 0.00 36 1009.6
20171021062104 68 211 2.0 5.0 0.00 0.00 0.00 36 1009.6
20171021061605 68 202 3.0 5.0 0.00 0.00 0.00 36 1009.5
20171021061104 69 188 3.0 3.0 0.00 0.00 0.00 35 1009.5
20171021060605 69 197 2.0 5.0 0.00 0.00 0.00 35 1009.6
20171021060105 69 217 2.0 3.0 0.00 0.00 0.00 35 1009.6
20171021055604 69 210 3.0 5.0 0.00 0.00 0.00 35 1009.6
20171021055104 69 166 2.0 3.0 0.00 0.00 0.00 35 1009.6
20171021054604 69 198 1.0 3.0 0.00 0.00 0.00 35 1009.6
20171021054104 69 210 2.0 3.0 0.00 0.00 0.00 35 1009.6
20171021053604 69 212 2.0 3.0 0.00 0.00 0.00 35 1009.6
20171021053104 69 251 1.0 5.0 0.00 0.00 0.00 35 1009.7
20171021052604 69 214 2.0 5.0 0.00 0.00 0.00 35 1009.7
20171021052105 69 217 2.0 6.0 0.00 0.00 0.00 35 1009.7
20171021051604 69 211 2.0 3.0 0.00 0.00 0.00 36 1009.7
20171021051104 70 202 0.0 3.0 0.00 0.00 0.00 36 1009.7
20171021050604 70 216 2.0 5.0 0.00 0.00 0.00 36 1009.5
20171021050105 70 126 0.0 5.0 0.00 0.00 0.00 36 1009.5
20171021045604 70 223 5.0 7.0 0.00 0.00 0.00 37 1009.4
20171021045104 70 159 1.0 3.0 0.00 0.00 0.00 38 1009.4
20171021044604 69 220 1.0 3.0 0.00 0.00 0.00 39 1009.4
20171021044104 70 179 0.0 0.0 0.00 0.00 0.00 39 1009.4
20171021043604 70 192 0.0 1.0 0.00 0.00 0.00 39 1009.4
20171021043104 70 258 0.0 3.0 0.00 0.00 0.00 39 1009.4
20171021042604 70 186 2.0 5.0 0.00 0.00 0.00 39 1009.4
20171021042104 70 155 2.0 3.0 0.00 0.00 0.00 39 1009.4
20171021041605 71 112 0.0 1.0 0.00 0.00 0.00 39 1009.0
20171021041104 71 180 2.0 2.0 0.00 0.00 0.00 38 1009.0
20171021040604 71 178 1.0 3.0 0.00 0.00 0.00 38 1008.9
20171021040105 71 195 2.0 3.0 0.00 0.00 0.00 38 1008.9
20171021035604 72 182 2.0 3.0 0.00 0.00 0.00 38 1008.9
20171021035105 72 180 1.0 5.0 0.00 0.00 0.00 38 1008.8
20171021034605 72 197 3.0 5.0 0.00 0.00 0.00 38 1008.8
20171021034104 72 177 1.0 3.0 0.00 0.00 0.00 38 1008.3
20171021033606 72 209 2.0 3.0 0.00 0.00 0.00 38 1008.3
20171021033104 72 198 2.0 3.0 0.00 0.00 0.00 38 1008.3
20171021032604 73 192 1.0 2.0 0.00 0.00 0.00 38 1008.3
20171021032105 73 189 2.0 5.0 0.00 0.00 0.00 38 1008.3
20171021031605 73 202 2.0 3.0 0.00 0.00 0.00 38 1008.2
20171021031104 73 215 0.0 2.0 0.00 0.00 0.00 38 1008.2
20171021030605 73 188 2.0 5.0 0.00 0.00 0.00 37 1008.1
20171021030105 73 177 3.0 6.0 0.00 0.00 0.00 37 1008.1
20171021025604 73 202 2.0 5.0 0.00 0.00 0.00 37 1008.0
20171021025104 74 163 2.0 5.0 0.00 0.00 0.00 37 1007.9
20171021024605 74 193 4.0 5.0 0.00 0.00 0.00 37 1007.9
20171021024105 74 187 5.0 6.0 0.00 0.00 0.00 37 1007.8
20171021023604 74 158 2.0 5.0 0.00 0.00 0.00 37 1007.8
20171021023104 74 174 3.0 5.0 0.00 0.00 0.00 37 1007.8
20171021022604 74 167 3.0 6.0 0.00 0.00 0.00 37 1007.8
20171021022104 74 219 3.0 6.0 0.00 0.00 0.00 37 1007.8
20171021021605 75 217 3.0 6.0 0.00 0.00 0.00 36 1008.0
20171021021104 75 181 3.0 5.0 0.00 0.00 0.00 36 1008.0
20171021020605 75 194 3.0 5.0 0.00 0.00 0.00 36 1007.6
20171021020105 75 180 2.0 5.0 0.00 0.00 0.00 36 1007.6
20171021015604 75 202 6.0 8.0 0.00 0.00 0.00 35 1007.6
20171021015104 76 226 6.0 8.0 0.00 0.00 0.00 35 1007.6
20171021014604 76 148 4.0 6.0 0.00 0.00 0.00 35 1007.6
20171021014104 76 195 6.0 7.0 0.00 0.00 0.00 35 1007.4
20171021013604 76 186 6.0 9.0 0.00 0.00 0.00 34 1007.4
20171021013104 76 228 5.0 9.0 0.00 0.00 0.00 34 1007.4
20171021012604 76 226 5.0 9.0 0.00 0.00 0.00 33 1007.4
20171021012104 77 212 5.0 8.0 0.00 0.00 0.00 33 1007.4
20171021011604 77 137 6.0 9.0 0.00 0.00 0.00 33 1007.2
20171021011105 77 203 7.0 10.0 0.00 0.00 0.00 33 1007.2
20171021010605 77 199 5.0 10.0 0.00 0.00 0.00 33 1007.0
20171021010105 77 150 8.0 13.0 0.00 0.00 0.00 33 1007.0
20171021005605 78 181 9.0 10.0 0.00 0.00 0.00 33 1006.9
20171021005105 78 190 5.0 10.0 0.00 0.00 0.00 33 1006.8
20171021004604 78 203 7.0 9.0 0.00 0.00 0.00 34 1006.8
20171021004104 78 201 6.0 7.0 0.00 0.00 0.00 34 1006.7
20171021003604 78 194 7.0 9.0 0.00 0.00 0.00 34 1006.7
20171021003104 79 149 7.0 9.0 0.00 0.00 0.00 34 1006.8
20171021002604 79 200 3.0 7.0 0.00 0.00 0.00 34 1006.8
20171021002104 79 179 5.0 7.0 0.00 0.00 0.00 34 1006.8
20171021001605 79 189 7.0 10.0 0.00 0.00 0.00 34 1007.0
20171021001104 79 173 6.0 8.0 0.00 0.00 0.00 34 1007.0
20171021000604 80 199 6.0 8.0 0.00 0.00 0.00 34 1006.7
20171021000104 80 186 6.0 9.0 0.00 0.00 0.00 34 1006.7
20171020235605 80 199 7.0 10.0 0.00 0.00 0.00 34 1006.9
20171020235104 80 200 6.0 12.0 0.00 0.00 0.00 34 1007.1
20171020234605 80 225 6.0 9.0 0.00 0.00 0.00 34 1007.1
20171020234105 80 168 5.0 10.0 0.00 0.00 0.00 34 1006.7
20171020233604 80 210 8.0 10.0 0.00 0.00 0.00 34 1006.7
20171020233104 80 197 6.0 12.0 0.00 0.00 0.00 34 1006.8
20171020232604 80 181 6.0 9.0 0.00 0.00 0.00 34 1006.8
20171020232105 81 185 6.0 9.0 0.00 0.00 0.00 34 1006.8
20171020231604 81 199 8.0 12.0 0.00 0.00 0.00 34 1007.0
20171020231104 81 214 7.0 9.0 0.00 0.00 0.00 33 1007.0
20171020230604 81 189 6.0 9.0 0.00 0.00 0.00 33 1007.4
20171020230105 82 188 7.0 10.0 0.00 0.00 0.00 32 1007.4
20171020225604 82 200 6.0 10.0 0.00 0.00 0.00 32 1007.4
20171020225104 82 245 7.0 10.0 0.00 0.00 0.00 32 1007.3
20171020224605 82 231 9.0 10.0 0.00 0.00 0.00 32 1007.3
20171020224104 82 207 9.0 12.0 0.00 0.00 0.00 32 1007.4
20171020223604 83 220 7.0 10.0 0.00 0.00 0.00 32 1007.4
20171020223104 83 190 10.0 13.0 0.00 0.00 0.00 31 1007.2
20171020222604 82 200 10.0 13.0 0.00 0.00 0.00 31 1007.2
20171020222104 84 166 7.0 13.0 0.00 0.00 0.00 31 1007.2
20171020221604 83 261 7.0 14.0 0.00 0.00 0.00 31 1007.1
20171020221104 83 176 7.0 13.0 0.00 0.00 0.00 31 1007.1
20171020220604 83 196 7.0 13.0 0.00 0.00 0.00 30 1007.1
20171020220105 83 241 9.0 14.0 0.00 0.00 0.00 30 1007.1
20171020215605 83 175 9.0 13.0 0.00 0.00 0.00 30 1007.1
20171020215104 83 168 10.0 14.0 0.00 0.00 0.00 30 1007.1
20171020214604 83 214 10.0 13.0 0.00 0.00 0.00 31 1007.1
20171020214105 83 225 6.0 13.0 0.00 0.00 0.00 30 1007.4
20171020213604 83 179 10.0 14.0 0.00 0.00 0.00 30 1007.4
20171020213104 84 143 7.0 14.0 0.00 0.00 0.00 30 1007.6
20171020212604 83 72 8.0 16.0 0.00 0.00 0.00 30 1007.6
20171020212104 83 124 10.0 14.0 0.00 0.00 0.00 30 1007.6
20171020211604 84 210 8.0 12.0 0.00 0.00 0.00 29 1007.5
20171020211105 85 157 5.0 10.0 0.00 0.00 0.00 29 1007.5
20171020210604 84 152 7.0 13.0 0.00 0.00 0.00 29 1007.8
20171020210105 84 178 10.0 13.0 0.00 0.00 0.00 29 1007.8
20171020205604 84 174 6.0 9.0 0.00 0.00 0.00 28 1007.8
20171020205104 85 180 7.0 10.0 0.00 0.00 0.00 28 1007.9
20171020204604 85 188 7.0 10.0 0.00 0.00 0.00 28 1007.9
20171020204104 85 157 9.0 10.0 0.00 0.00 0.00 27 1008.0
20171020203605 84 253 6.0 8.0 0.00 0.00 0.00 27 1008.0
20171020203104 85 157 7.0 15.0 0.00 0.00 0.00 27 1008.3
20171020202604 84 180 5.0 15.0 0.00 0.00 0.00 28 1008.3
20171020202104 84 190 9.0 13.0 0.00 0.00 0.00 27 1008.3
20171020201604 84 174 8.0 10.0 0.00 0.00 0.00 26 1008.6
20171020201104 85 190 5.0 8.0 0.00 0.00 0.00 26 1008.6
20171020200604 84 181 6.0 10.0 0.00 0.00 0.00 26 1008.5
20171020200105 84 174 8.0 10.0 0.00 0.00 0.00 26 1008.5
20171020195604 84 188 5.0 8.0 0.00 0.00 0.00 26 1008.6
20171020195105 83 220 7.0 8.0 0.00 0.00 0.00 26 1008.7
20171020194605 83 225 8.0 9.0 0.00 0.00 0.00 26 1008.7
20171020194105 83 169 7.0 9.0 0.00 0.00 0.00 26 1009.4
20171020193605 83 173 5.0 7.0 0.00 0.00 0.00 26 1009.4
20171020193104 82 214 7.0 9.0 0.00 0.00 0.00 26 1009.7
20171020192604 82 199 7.0 9.0 0.00 0.00 0.00 26 1009.7
20171020192104 83 225 5.0 8.0 0.00 0.00 0.00 26 1009.7
20171020191604 83 220 7.0 9.0 0.00 0.00 0.00 26 1009.9
20171020191105 82 183 4.0 7.0 0.00 0.00 0.00 26 1009.9
20171020190604 82 189 7.0 10.0 0.00 0.00 0.00 26 1010.1
20171020190105 82 225 7.0 7.0 0.00 0.00 0.00 26 1010.1
20171020185605 82 197 6.0 9.0 0.00 0.00 0.00 26 1010.2
20171020185104 81 197 6.0 9.0 0.00 0.00 0.00 26 1010.3
20171020184605 82 199 5.0 8.0 0.00 0.00 0.00 26 1010.3
20171020184104 82 217 5.0 7.0 0.00 0.00 0.00 26 1010.4
20171020183606 81 169 6.0 10.0 0.00 0.00 0.00 27 1010.4
20171020183105 82 186 5.0 7.0 0.00 0.00 0.00 27 1010.8
20171020182605 82 200 7.0 10.0 0.00 0.00 0.00 27 1010.8
20171020182104 81 202 6.0 8.0 0.00 0.00 0.00 27 1010.8
20171020181605 81 267 5.0 9.0 0.00 0.00 0.00 27 1010.9
20171020181105 81 202 3.0 9.0 0.00 0.00 0.00 27 1010.9
20171020180605 82 163 7.0 8.0 0.00 0.00 0.00 28 1010.9
20171020180105 81 263 2.0 5.0 0.00 0.00 0.00 28 1010.9
20171020175604 80 237 0.0 5.0 0.00 0.00 0.00 28 1010.9
20171020175104 80 232 3.0 7.0 0.00 0.00 0.00 29 1010.8
20171020174605 79 207 4.0 7.0 0.00 0.00 0.00 29 1010.8
20171020174104 79 193 6.0 7.0 0.00 0.00 0.00 29 1010.9
20171020173605 79 184 5.0 8.0 0.00 0.00 0.00 28 1010.9
20171020173104 79 244 4.0 8.0 0.00 0.00 0.00 28 1010.8
20171020172604 79 182 3.0 6.0 0.00 0.00 0.00 28 1010.8
20171020172105 79 240 5.0 7.0 0.00 0.00 0.00 27 1010.8
20171020171604 79 217 3.0 7.0 0.00 0.00 0.00 27 1010.8
20171020171104 78 246 3.0 7.0 0.00 0.00 0.00 28 1010.8
20171020170605 79 211 6.0 7.0 0.00 0.00 0.00 27 1010.4
20171020170104 78 209 5.0 7.0 0.00 0.00 0.00 26 1010.4
20171020165605 78 241 5.0 7.0 0.00 0.00 0.00 26 1010.3
20171020165105 79 199 5.0 8.0 0.00 0.00 0.00 26 1010.2
20171020164605 79 124 2.0 6.0 0.00 0.00 0.00 26 1010.2
20171020164105 78 180 2.0 5.0 0.00 0.00 0.00 27 1010.5
20171020163605 78 199 5.0 6.0 0.00 0.00 0.00 27 1010.5
20171020163104 78 192 3.0 6.0 0.00 0.00 0.00 27 1010.7
20171020162605 78 170 5.0 6.0 0.00 0.00 0.00 27 1010.7
20171020162105 78 209 3.0 7.0 0.00 0.00 0.00 27 1010.7
20171020161604 78 203 4.0 6.0 0.00 0.00 0.00 27 1010.7
20171020161104 78 155 3.0 7.0 0.00 0.00 0.00 27 1010.7
20171020160605 78 179 2.0 5.0 0.00 0.00 0.00 27 1010.7
20171020160105 78 154 6.0 7.0 0.00 0.00 0.00 27 1010.7
20171020155605 78 180 3.0 5.0 0.00 0.00 0.00 27 1010.7
20171020155105 78 191 2.0 3.0 0.00 0.00 0.00 27 1010.6
20171020154604 78 192 0.0 3.0 0.00 0.00 0.00 28 1010.6
20171020154105 77 175 3.0 5.0 0.00 0.00 0.00 28 1010.4
20171020153604 77 167 2.0 5.0 0.00 0.00 0.00 29 1010.4
20171020153105 76 165 3.0 5.0 0.00 0.00 0.00 29 1010.3
20171020152604 76 151 2.0 6.0 0.00 0.00 0.00 30 1010.3
20171020152104 74 154 3.0 5.0 0.00 0.00 0.00 31 1010.3
20171020151604 74 145 2.0 5.0 0.00 0.00 0.00 32 1010.3
20171020151104 71 158 3.0 5.0 0.00 0.00 0.00 34 1010.3
20171020150604 68 164 3.0 5.0 0.00 0.00 0.00 38 1010.0
20171020150105 67 171 1.0 3.0 0.00 0.00 0.00 39 1010.0
20171020145604 67 188 1.0 3.0 0.00 0.00 0.00 39 1010.0
20171020145104 66 191 0.0 0.0 0.00 0.00 0.00 39 1009.9
20171020144605 65 158 0.0 1.0 0.00 0.00 0.00 39 1009.9
20171020144105 65 173 0.0 0.0 0.00 0.00 0.00 39 1009.9
20171020143604 65 167 0.0 1.0 0.00 0.00 0.00 39 1009.9
20171020143104 65 164 0.0 0.0 0.00 0.00 0.00 39 1009.9
20171020142604 64 180 0.0 0.0 0.00 0.00 0.00 39 1009.9
20171020142104 64 152 0.0 0.0 0.00 0.00 0.00 39 1009.9
20171020141604 64 158 1.0 2.0 0.00 0.00 0.00 39 1009.7
20171020141104 63 179 0.0 0.0 0.00 0.00 0.00 40 1009.7
20171020140604 64 150 0.0 0.0 0.00 0.00 0.00 40 1009.7